Location: Unspecified
(0.0000°N, 0.0000°E)
Time: 22:30:10
(UTC+00:00)

Alouette 1 - Pass Details

Date: 25 October 2021
Orbit: 985 x 1019 km, 80.5° (Epoch: 07 December)

Event Time Altitude Azimuth Distance (km) Brightness Sun altitude
Rises 19:46:56 0° 317° (NW) 3,735 9.4 -29.9°
Reaches altitude 10° 19:50:57 10° 293° (WNW) 2,782 9.0 -30.9°
Maximum altitude 19:53:57 14° 264° (W) 2,514 8.9 -31.6°
Drops below altitude 10° 19:56:58 10° 236° (SW) 2,776 9.1 -32.4°
Sets 20:01:01 0° 211° (SSW) 3,720 9.6 -33.3°
